RH
31 36 36 30 30 27 27 30 34 28 23 44 51 46 59 65 71 79 84 83 82 68 54 52 48 53 67 74 70 72 70 64 70 74 80 90 79 76 70 68 70 67 64 66
37 41 32 29 32 31 31 31 33 27 21 39 44 49 53 68 68 70 72 75 69 66 65 59 56 57 60 52 61 66 72 69 74 75 76 78 83 83 72 70 69 65 58 55
38 26 28 29 28 27 30 32 34 31 20 28 34 39 59 56 56 60 62 60 62 57 59 58 63 60 62 62 51 61 67 74 80 78 83 83 89 84 78 73 72 68 59 54
37 29 28 28 28 29 33 28 33 29 24 30 28 35 34 61 63 57 53 54 55 57 51 52 53 59 57 65 64 55 49 51 64 69 73 78 78 81 80 76 75 71 64 60
33 31 31 31 30 28 32 27 30 28 34 36 38 39 33 56 65 58 53 49 48 48 51 50 49 52 55 55 55 54 59 57 64 67 74 80 86 85 86 83 78 74 69 66
31 26 28 28 27 27 26 28 33 43 45 53 41 43 44 49 50 46 46 48 46 43 45 46 47 50 51 52 60 64 63 72 64 65 71 84 87 96 98 90 80 76 72 68
30 29 28 29 28 29 30 35 42 39 62 57 47 52 45 30 33 40 45 42 38 37 38 46 47 48 50 52 56 71 66 65 62 62 63 71 86 98 99 94 85 77 70 70
40 39 36 30 29 32 33 36 53 34 62 43 51 50 33 31 29 30 27 26 28 33 34 34 40 43 43 48 50 63 57 74 72 72 71 84 94 100 98 98 85 72 71 73
45 38 38 38 34 30 36 40 36 70 80 74 55 44 30 29 39 44 39 33 32 32 34 34 36 41 41 44 45 49 56 58 61 68 78 87 100 92 96 92 85 79 78 73
37 33 39 37 37 35 32 41 49 63 53 59 52 46 40 30 34 44 50 45 35 36 40 40 39 41 44 45 50 54 58 65 65 65 70 86 94 86 81 77 87 85 80 73
41 32 32 41 41 35 41 40 46 50 61 58 67 49 37 28 30 32 39 36 34 34 35 36 38 42 46 44 53 56 58 62 58 68 74 79 80 70 71 83 87 85 78 62
40 42 52 37 34 33 34 41 47 66 46 79 78 58 30 28 30 28 24 24 25 31 34 40 41 43 43 45 53 56 59 62 61 69 75 69 60 68 82 80 76 72 65 49
45 45 57 43 36 37 38 40 42 54 66 64 70 52 27 31 28 21 20 19 23 28 34 42 44 43 45 54 62 62 55 56 56 58 62 65 78 75 73 71 68 62 54 48
32 52 43 43 38 40 42 41 50 48 72 61 66 41 31 28 30 27 19 18 18 23 30 37 41 42 54 64 64 53 52 54 55 61 66 78 75 74 71 67 64 56 49 46
39 42 46 40 33 37 37 35 50 46 45 51 45 48 37 34 32 27 23 20 20 24 34 39 44 54 63 67 65 62 60 66 67 77 79 76 74 73 68 66 60 50 52 52
49 48 42 44 46 43 41 40 42 44 42 44 42 42 36 30 31 32 28 35 41 44 46 49 52 55 60 65 64 64 68 74 77 78 78 76 73 70 70 64 55 54 54 56
52 68 63 51 57 46 61 50 45 44 41 40 48 41 35 39 42 43 39 42 46 44 41 40 41 43 46 48 50 52 60 69 78 80 80 78 74 73 72 65 56 57 61 65
66 63 73 74 65 65 41 38 36 42 40 38 39 38 40 46 48 46 45 41 40 37 36 34 34 34 32 32 34 41 52 66 75 81 83 80 79 79 71 66 66 66 75 91
62 75 79 71 75 51 40 39 42 41 38 42 44 58 55 52 47 51 43 38 37 38 39 40 39 39 41 42 44 50 61 72 82 84 82 82 81 77 71 69 84 98 98 93
66 74 73 82 70 68 54 38 31 32 49 44 52 62 60 52 60 66 50 47 46 45 44 44 45 48 49 49 51 54 64 77 82 81 80 78 76 77 93 88 93 92 99 98
87 93 81 96 77 70 50 34 27 44 47 39 42 47 51 46 41 53 52 51 49 48 49 50 52 52 53 55 61 59 69 75 77 77 76 76 77 91 96 93 99 100 98 76
80 90 89 89 78 71 37 38 43 44 29 33 38 40 42 40 49 52 50 50 52 52 55 57 56 58 61 64 67 73 76 79 78 82 92 100 100 100 90 71 58 49 44 43
62 69 76 69 70 49 39 37 26 25 27 34 34 38 35 38 48 52 53 55 56 57 58 59 58 59 65 71 75 80 99 98 92 79 65 55 48 40 39 37 38 38 40 44
62 59 63 60 52 56 46 36 34 32 27 30 31 34 36 35 50 55 59 61 62 63 62 63 64 69 77 81 80 75 66 52 42 38 36 36 36 36 40 42 46 47 48 54
68 64 74 66 68 66 53 44 38 36 34 35 37 36 39 42 56 58 64 65 65 65 68 71 73 75 72 66 58 51 46 43 41 41 42 42 42 43 43 47 55 59 64 77
69 68 75 68 51 45 39 38 41 40 39 40 38 54 55 52 55 64 66 67 68 72 80 78 72 66 63 57 52 51 52 51 49 49 49 52 54 54 53 44 32 25 19 15
Wind_Speed
3 4 4 7 5 3 2 1 3 4 5 6 9 5 9 19 18 18 25 27 28 29 25 28 29 30 30 29 28 28 27 26 26 25 25 26 26 22 20 16 10 12 13 13
5 3 7 4 4 5 3 2 6 4 4 6 2 4 4 11 14 26 29 30 30 30 27 30 32 32 32 31 32 32 31 30 30 29 28 27 25 23 20 17 14 13 15 16
4 4 2 4 4 1 4 3 5 5 3 4 3 4 3 4 8 17 25 30 30 30 30 30 34 35 34 35 35 36 36 33 33 32 30 29 29 25 24 22 19 19 18 15
4 5 4 1 2 3 3 3 4 4 3 3 1 3 4 5 9 6 20 26 32 34 32 33 34 36 35 35 33 33 32 32 31 30 31 32 32 31 30 25 22 20 18 17
6 3 4 3 4 4 8 4 1 1 4 3 3 4 5 2 8 15 20 31 34 35 38 38 38 38 36 34 32 32 33 30 32 31 31 32 33 32 28 24 24 23 20 18
5 3 3 5 4 5 1 2 5 4 3 2 2 3 5 5 13 19 24 29 42 38 36 39 40 40 39 37 35 35 23 34 35 33 33 36 36 33 27 28 26 24 21 20
1 3 3 1 1 3 3 5 3 4 4 4 1 1 8 8 6 7 12 25 38 40 38 36 39 42 43 41 40 39 36 35 37 37 30 34 34 31 26 26 26 26 24 24
6 5 6 3 5 7 2 6 5 2 1 3 2 4 6 4 10 15 17 21 20 33 42 39 41 41 41 41 39 40 34 36 35 33 30 32 34 28 27 27 26 27 27 27
5 5 2 1 1 1 3 2 5 6 3 2 4 7 9 3 5 8 9 8 12 20 26 34 41 39 39 39 36 35 33 25 23 24 21 24 31 25 26 29 30 31 29 27
7 2 2 1 1 1 2 7 3 3 2 3 4 4 5 8 6 5 6 9 4 10 20 25 35 37 36 35 35 31 24 25 21 21 23 27 25 26 27 28 31 33 31 29
5 4 4 2 6 8 2 1 5 5 4 4 1 5 7 6 5 4 8 9 7 9 12 17 21 24 31 30 31 30 27 23 21 26 25 24 25 28 28 29 31 31 30 27
7 6 4 9 3 2 4 7 6 4 4 1 3 6 5 8 7 7 7 7 7 6 9 15 16 19 22 25 30 33 29 26 23 25 27 27 26 28 28 26 29 30 28 24
8 1 1 7 4 2 4 5 4 5 3 6 5 6 3 6 8 12 10 8 9 8 8 14 17 20 24 29 35 32 28 25 24 26 28 28 28 29 27 27 29 30 27 22
14 4 8 9 8 5 4 6 5 5 4 4 6 7 8 9 7 12 14 13 12 13 12 15 18 21 24 29 28 25 26 27 27 26 29 30 29 28 25 26 29 28 24 20
7 8 5 5 4 5 5 5 9 7 5 6 7 7 9 8 6 10 13 14 10 12 13 15 17 19 22 24 27 26 28 31 32 31 29 31 31 28 29 29 27 25 21 20
1 5 5 4 1 1 4 6 6 5 4 5 6 7 8 5 4 5 2 1 5 3 1 4 7 10 15 19 21 25 28 31 33 30 31 33 33 32 30 28 26 25 24 24
8 7 4 5 2 4 6 7 8 5 5 7 7 10 5 1 2 3 8 13 16 16 14 11 8 5 2 2 5 10 16 22 26 29 32 35 35 31 29 27 27 26 25 23
7 7 3 3 3 2 7 1 4 9 7 5 5 3 6 10 9 10 10 14 16 14 14 12 9 6 4 4 5 8 12 15 18 23 28 29 27 24 24 22 19 20 20 18
2 6 3 5 4 5 4 5 8 8 9 7 6 6 14 20 18 11 9 11 13 12 11 10 9 7 6 6 7 9 10 11 11 15 18 18 18 18 19 20 19 14 9 16
6 7 4 3 5 8 8 5 7 4 4 8 12 9 12 12 4 4 9 10 11 9 8 7 6 6 6 8 9 9 6 4 5 5 7 10 16 19 17 18 18 20 26 26
4 4 5 2 3 7 7 4 11 5 8 18 26 26 20 5 5 16 13 10 8 7 7 6 7 6 6 6 6 6 6 5 5 5 7 9 10 13 16 20 23 23 17 14
7 7 4 3 3 7 11 6 9 8 5 28 28 28 17 11 14 17 13 9 8 7 8 8 9 10 11 11 8 12 13 12 7 2 4 6 7 9 10 8 10 13 17 20
3 7 6 9 7 5 14 5 15 10 15 26 28 24 20 19 20 18 16 13 11 11 11 11 11 13 14 13 11 10 9 4 2 3 4 5 6 8 10 12 15 17 19 22
3 4 4 4 5 6 9 15 11 15 23 27 24 24 22 21 22 21 18 16 14 13 12 11 11 13 13 9 7 8 7 5 4 3 4 6 8 11 13 15 17 20 21 23
4 9 7 3 3 1 11 16 15 18 19 23 21 22 24 23 24 21 20 18 16 14 13 10 10 11 10 8 6 6 4 3 4 7 9 11 14 16 18 19 21 23 24 25
7 7 6 7 16 13 11 21 21 21 24 23 24 23 20 21 23 22 20 18 16 15 13 12 11 9 9 6 4 2 3 6 9 11 13 15 18 21 23 27 30 29 30 31
Wind_Direction
28 69 223 226 171 180 273 236 240 244 222 163 215 210 181 187 195 196 211 212 213 214 203 203 205 209 211 212 209 208 206 201 200 202 210 211 217 216 212 214 217 213 216 211
21 239 221 200 186 171 193 12 317 302 19 185 128 263 198 171 209 201 203 217 217 219 214 208 210 210 210 210 210 210 213 213 211 216 219 221 221 215 224 225 218 212 214 212
161 257 203 158 202 35 334 342 293 220 33 52 86 346 217 191 218 211 213 218 222 223 218 214 212 214 214 214 212 211 212 214 219 220 221 222 222 224 227 220 217 211 214 219
226 256 244 219 134 123 306 193 263 243 107 203 182 260 265 224 226 230 219 224 225 227 228 226 222 220 218 218 217 217 216 216 219 223 226 227 230 229 231 226 217 216 218 226
244 212 199 232 214 153 240 48 329 57 104 112 344 96 262 150 230 236 235 226 228 228 228 229 228 229 226 224 219 220 223 226 228 226 229 233 231 237 233 222 218 221 223 230
228 273 209 217 198 177 315 141 50 45 88 62 316 125 269 188 213 224 228 231 233 232 230 231 232 230 230 231 228 224 214 240 234 232 238 234 234 236 229 223 221 225 229 234
358 237 281 208 170 34 112 61 354 356 12 224 246 72 242 261 240 241 246 227 231 230 227 228 227 228 230 231 232 229 216 230 232 234 244 235 240 245 241 237 234 232 235 241
173 304 187 183 212 181 179 140 146 241 210 278 322 251 263 228 293 280 260 262 249 238 231 231 232 234 234 234 234 235 244 233 233 238 243 235 240 239 235 233 242 242 247 245
149 265 266 166 19 127 192 116 159 106 14 52 263 293 299 359 334 328 315 280 240 231 231 230 231 234 236 237 237 240 239 251 249 248 240 234 237 237 230 241 239 241 242 241
201 156 204 229 57 245 203 157 92 20 168 251 284 285 243 319 321 322 310 278 237 217 220 225 229 233 234 236 236 235 248 246 253 246 240 238 239 235 243 242 240 240 242 246
134 130 254 161 195 190 138 186 58 116 136 180 232 258 218 243 241 273 262 269 263 238 230 226 230 232 232 239 234 231 242 246 242 237 236 237 238 244 242 236 242 244 242 241
197 150 194 213 292 115 150 188 147 135 205 128 161 271 243 240 262 269 291 281 303 263 241 237 233 230 226 227 229 229 234 240 239 239 237 239 246 244 239 240 242 240 238 238
178 191 61 330 8 339 208 188 127 104 88 191 146 262 323 299 274 262 271 278 294 286 237 228 229 228 228 228 226 231 243 248 243 244 243 243 239 239 239 242 236 237 236 240
141 142 170 212 214 164 183 176 166 140 129 182 217 265 292 283 291 295 283 274 287 278 253 238 235 239 237 234 238 250 259 260 255 249 249 238 239 242 243 242 237 236 236 238
135 194 180 239 203 184 204 178 164 185 194 165 246 202 258 263 259 279 289 286 261 245 244 244 247 248 246 245 248 253 256 254 251 247 241 241 240 240 238 238 237 234 234 232
193 184 163 178 169 163 225 236 199 213 178 236 238 255 231 299 281 298 301 67 92 91 256 271 272 272 269 267 272 276 273 266 260 253 249 247 243 238 242 240 236 230 228 224
147 134 121 228 23 46 323 222 213 209 203 179 204 222 163 108 26 49 111 107 93 86 83 80 74 68 54 323 298 290 287 276 266 258 253 249 246 245 246 241 231 226 221 211
137 116 106 172 45 244 248 235 206 214 239 226 279 217 174 149 115 100 111 108 100 93 88 87 84 77 57 359 315 301 292 283 269 256 250 249 249 249 240 229 209 196 194 204
120 123 109 146 189 294 282 206 177 179 256 194 190 138 138 131 106 69 101 111 108 105 96 83 65 45 21 357 335 312 294 282 265 251 249 251 252 237 210 198 190 202 233 244
67 65 121 135 161 214 226 230 175 105 271 181 153 167 164 166 105 197 153 130 116 103 91 79 80 64 45 29 13 355 343 309 270 233 216 187 181 180 181 200 224 244 267 271
68 29 151 110 210 287 250 215 146 130 238 174 172 172 172 164 157 150 156 139 124 117 117 118 122 112 76 59 35 36 52 71 118 155 176 189 208 239 250 260 277 281 286 287
154 144 181 93 69 279 181 126 172 215 199 180 176 177 175 161 149 155 162 153 143 135 125 122 117 93 80 73 70 91 95 97 102 121 266 278 288 288 297 307 301 298 297 295
194 177 177 177 208 223 195 214 218 222 182 181 180 181 182 166 166 169 167 161 151 142 132 118 107 103 99 100 95 103 96 80 33 38 61 34 350 329 320 313 308 305 303 302
259 145 149 109 213 221 229 220 225 199 186 182 182 179 182 180 176 170 166 158 151 139 130 122 116 111 111 111 109 97 90 77 55 24 352 326 317 314 311 309 308 305 303 302
193 137 161 279 276 271 240 215 214 196 192 181 181 188 188 182 171 171 160 153 146 141 134 133 129 125 117 115 105 95 75 30 348 337 328 322 318 316 314 311 310 307 305 304
194 168 163 214 192 181 199 200 191 185 181 186 189 176 179 183 174 165 155 151 149 147 144 140 132 128 122 120 101 57 360 339 333 330 329 328 325 321 318 315 312 310 308 307